Starlink 30380

operational
NORAD ID: 57780 Int'l Des: 2023-134 Owner: SPXS Country: US Constellation: starlink
LEOCIRCULAR

About Starlink 30380

Description loading...

Live Position

Loading 3D Globe...

Upcoming Passes

Altitude History

Altitude vs Time

uPlot chart will show altitude changes over time

Two-Line Element Set

1 57780U 23134K 26102.14143799 .00002275 00000-0 92139-4 0 9993
2 57780 43.0042 5.4860 0001545 271.8389 88.2285 15.27586527144626
Epoch: Apr 12, 2026 • Age: 17 hours

Current Status

Altitude 491.0 km
Velocity 7.62 km/s
Sub-Earth Point -32.19°S, 171.76°E
Launch Date Sep 4, 2023
Age 2.6 years
Type internet

Technical Details

Classification Payload
Mass 730.00 kg
Dry Mass 700.00 kg
Total Mass 730.00 kg
Length 0.30 m
Diameter 4.10 m
Span 29.00 m
Shape Box + pan
Manufacturer SPXS
Bus Type Starlink V2M
Phase Status In Orbit
Owner/State SPXS/US

Large Constellations

Loading constellations...